Total_Precipitation_Accumulation
0.04 0.06 0.07 0.08 0.04 0.02 0.00 0.00 0.00 0.00 0.00 0.00 0.00 0.00 0.00 0.00 0.00 0.00 0.00 0.00 0.01 0.03 0.05 0.13 0.18 0.21 0.23 0.24 0.23 0.21 0.22 0.22 0.23 0.24 0.23 0.25 0.27 0.29 0.32 0.31 0.32 0.35 0.40 0.43 0.40 0.39 0.46 0.50 0.55
0.05 0.08 0.09 0.08 0.03 0.01 0.00 0.00 0.00 0.00 0.00 0.00 0.00 0.00 0.00 0.00 0.00 0.00 0.00 0.00 0.00 0.01 0.03 0.07 0.15 0.20 0.23 0.24 0.24 0.23 0.22 0.21 0.20 0.23 0.25 0.27 0.31 0.33 0.33 0.34 0.35 0.37 0.43 0.43 0.46 0.47 0.48 0.53 0.53
0.08 0.10 0.10 0.08 0.02 0.00 0.00 0.00 0.00 0.00 0.00 0.00 0.00 0.00 0.00 0.00 0.00 0.00 0.00 0.00 0.00 0.01 0.02 0.06 0.15 0.20 0.24 0.28 0.28 0.25 0.23 0.22 0.21 0.23 0.27 0.30 0.33 0.36 0.34 0.35 0.37 0.38 0.41 0.38 0.42 0.45 0.41 0.42 0.42
0.11 0.14 0.13 0.06 0.01 0.00 0.00 0.00 0.00 0.00 0.00 0.00 0.00 0.00 0.00 0.00 0.00 0.00 0.00 0.00 0.00 0.01 0.02 0.06 0.15 0.22 0.26 0.31 0.32 0.28 0.25 0.24 0.24 0.26 0.29 0.30 0.30 0.33 0.33 0.33 0.32 0.33 0.37 0.37 0.38 0.42 0.39 0.40 0.40
0.13 0.14 0.12 0.05 0.01 0.00 0.00 0.00 0.00 0.00 0.00 0.00 0.00 0.00 0.00 0.00 0.00 0.00 0.00 0.00 0.00 0.01 0.03 0.07 0.17 0.24 0.27 0.31 0.35 0.31 0.28 0.27 0.27 0.29 0.32 0.33 0.33 0.32 0.31 0.31 0.30 0.30 0.30 0.32 0.36 0.38 0.39 0.44 0.41
0.16 0.14 0.08 0.03 0.01 0.00 0.00 0.00 0.00 0.00 0.00 0.00 0.00 0.00 0.00 0.00 0.00 0.00 0.00 0.00 0.01 0.02 0.03 0.08 0.19 0.25 0.27 0.31 0.36 0.34 0.33 0.32 0.31 0.32 0.33 0.35 0.35 0.36 0.34 0.31 0.29 0.29 0.28 0.27 0.30 0.35 0.44 0.48 0.41
0.17 0.13 0.06 0.02 0.01 0.00 0.00 0.00 0.00 0.00 0.00 0.00 0.00 0.00 0.00 0.00 0.00 0.00 0.00 0.01 0.01 0.03 0.05 0.09 0.18 0.24 0.29 0.35 0.40 0.39 0.38 0.37 0.35 0.34 0.34 0.36 0.37 0.38 0.36 0.33 0.30 0.30 0.29 0.28 0.27 0.31 0.40 0.45 0.41
0.17 0.17 0.08 0.03 0.01 0.01 0.00 0.00 0.00 0.00 0.00 0.00 0.00 0.00 0.00 0.00 0.00 0.01 0.01 0.02 0.03 0.05 0.07 0.10 0.16 0.21 0.26 0.32 0.37 0.40 0.40 0.41 0.39 0.37 0.32 0.30 0.35 0.41 0.38 0.30 0.29 0.29 0.29 0.29 0.27 0.25 0.30 0.34 0.34
0.24 0.26 0.12 0.04 0.02 0.01 0.01 0.01 0.00 0.00 0.00 0.00 0.00 0.00 0.00 0.00 0.01 0.02 0.03 0.06 0.07 0.07 0.10 0.12 0.18 0.22 0.27 0.29 0.31 0.37 0.42 0.42 0.39 0.37 0.29 0.29 0.30 0.32 0.33 0.27 0.25 0.27 0.28 0.28 0.30 0.27 0.25 0.24 0.20
0.33 0.27 0.12 0.04 0.03 0.03 0.02 0.02 0.02 0.02 0.01 0.01 0.00 0.00 0.00 0.01 0.02 0.03 0.05 0.07 0.07 0.09 0.11 0.14 0.20 0.25 0.28 0.29 0.31 0.36 0.38 0.36 0.34 0.30 0.27 0.29 0.28 0.27 0.26 0.25 0.25 0.27 0.27 0.29 0.32 0.30 0.24 0.21 0.16
0.31 0.23 0.11 0.05 0.05 0.07 0.06 0.04 0.03 0.04 0.03 0.01 0.01 0.01 0.01 0.03 0.04 0.05 0.06 0.07 0.08 0.08 0.11 0.13 0.19 0.25 0.29 0.31 0.30 0.33 0.34 0.34 0.33 0.29 0.25 0.28 0.32 0.33 0.31 0.27 0.26 0.27 0.26 0.27 0.29 0.29 0.26 0.26 0.27
0.29 0.20 0.13 0.08 0.06 0.09 0.10 0.07 0.05 0.05 0.03 0.01 0.01 0.02 0.02 0.04 0.05 0.05 0.06 0.09 0.12 0.12 0.13 0.14 0.18 0.25 0.30 0.31 0.30 0.31 0.30 0.29 0.28 0.27 0.26 0.26 0.28 0.27 0.25 0.23 0.21 0.21 0.20 0.21 0.22 0.23 0.23 0.24 0.25
0.26 0.17 0.13 0.12 0.10 0.10 0.12 0.11 0.08 0.05 0.02 0.02 0.03 0.04 0.04 0.05 0.06 0.07 0.08 0.11 0.13 0.15 0.16 0.17 0.19 0.24 0.30 0.34 0.33 0.31 0.29 0.26 0.24 0.25 0.25 0.23 0.23 0.22 0.22 0.22 0.21 0.20 0.18 0.18 0.17 0.17 0.18 0.19 0.22
0.26 0.18 0.15 0.15 0.16 0.14 0.14 0.12 0.09 0.05 0.03 0.04 0.06 0.06 0.07 0.08 0.08 0.09 0.11 0.12 0.14 0.15 0.17 0.19 0.22 0.26 0.33 0.35 0.34 0.31 0.29 0.29 0.26 0.23 0.21 0.21 0.21 0.19 0.20 0.20 0.21 0.19 0.17 0.17 0.17 0.16 0.16 0.17 0.17
0.26 0.26 0.21 0.17 0.19 0.20 0.21 0.18 0.08 0.04 0.04 0.07 0.08 0.08 0.08 0.09 0.09 0.10 0.11 0.12 0.13 0.18 0.21 0.23 0.25 0.27 0.32 0.37 0.39 0.37 0.33 0.30 0.27 0.24 0.21 0.20 0.21 0.21 0.18 0.18 0.18 0.19 0.19 0.20 0.19 0.17 0.17 0.16 0.16
0.40 0.44 0.35 0.19 0.17 0.22 0.32 0.26 0.06 0.03 0.06 0.08 0.08 0.08 0.07 0.07 0.08 0.10 0.12 0.15 0.16 0.21 0.26 0.27 0.29 0.30 0.32 0.36 0.42 0.42 0.40 0.36 0.30 0.26 0.25 0.23 0.22 0.22 0.24 0.22 0.20 0.18 0.20 0.24 0.23 0.21 0.19 0.17 0.16
0.57 0.49 0.28 0.16 0.14 0.22 0.31 0.24 0.09 0.06 0.08 0.09 0.07 0.08 0.07 0.07 0.08 0.09 0.12 0.15 0.19 0.22 0.27 0.30 0.32 0.32 0.33 0.35 0.43 0.46 0.46 0.42 0.36 0.32 0.26 0.24 0.25 0.24 0.24 0.26 0.24 0.25 0.26 0.26 0.28 0.25 0.26 0.23 0.19
0.40 0.29 0.19 0.15 0.15 0.19 0.23 0.16 0.10 0.10 0.10 0.10 0.08 0.08 0.08 0.07 0.07 0.08 0.11 0.15 0.20 0.24 0.30 0.35 0.36 0.37 0.37 0.42 0.49 0.55 0.55 0.51 0.44 0.38 0.32 0.24 0.24 0.24 0.25 0.25 0.26 0.28 0.32 0.33 0.32 0.28 0.26 0.27 0.27
0.25 0.25 0.22 0.15 0.14 0.20 0.19 0.14 0.12 0.13 0.13 0.11 0.09 0.09 0.10 0.09 0.08 0.09 0.11 0.13 0.17 0.24 0.32 0.40 0.41 0.43 0.44 0.46 0.47 0.52 0.52 0.52 0.51 0.43 0.37 0.32 0.27 0.24 0.25 0.25 0.26 0.27 0.27 0.27 0.26 0.26 0.26 0.25 0.26
0.33 0.34 0.27 0.18 0.15 0.20 0.20 0.16 0.13 0.14 0.14 0.11 0.09 0.09 0.10 0.12 0.12 0.13 0.14 0.14 0.16 0.21 0.31 0.43 0.42 0.45 0.46 0.42 0.40 0.42 0.47 0.49 0.50 0.46 0.43 0.37 0.32 0.28 0.27 0.27 0.25 0.25 0.24 0.23 0.21 0.22 0.24 0.23 0.23
0.38 0.30 0.23 0.22 0.24 0.25 0.26 0.22 0.12 0.11 0.10 0.09 0.08 0.08 0.09 0.11 0.13 0.15 0.17 0.19 0.18 0.20 0.27 0.40 0.42 0.43 0.47 0.46 0.50 0.50 0.60 0.64 0.59 0.51 0.47 0.40 0.33 0.28 0.26 0.25 0.28 0.26 0.25 0.23 0.22 0.21 0.23 0.24 0.22
0.37 0.20 0.20 0.27 0.42 0.50 0.38 0.38 0.15 0.10 0.10 0.10 0.09 0.08 0.08 0.10 0.12 0.15 0.16 0.21 0.24 0.20 0.25 0.34 0.40 0.40 0.47 0.49 0.53 0.52 0.53 0.58 0.53 0.46 0.42 0.38 0.33 0.30 0.27 0.25 0.27 0.29 0.28 0.25 0.24 0.23 0.24 0.26 0.27
0.28 0.19 0.26 0.36 0.51 0.58 0.42 0.43 0.19 0.10 0.14 0.13 0.11 0.09 0.08 0.09 0.10 0.13 0.16 0.20 0.25 0.25 0.29 0.33 0.35 0.38 0.44 0.51 0.52 0.54 0.50 0.49 0.51 0.52 0.48 0.43 0.36 0.33 0.30 0.27 0.27 0.29 0.30 0.29 0.26 0.25 0.26 0.28 0.30
0.30 0.38 0.48 0.57 0.84 0.93 0.35 0.31 0.20 0.12 0.15 0.14 0.12 0.10 0.10 0.10 0.11 0.13 0.16 0.20 0.26 0.32 0.35 0.39 0.38 0.38 0.42 0.49 0.52 0.56 0.54 0.50 0.53 0.55 0.55 0.50 0.44 0.40 0.36 0.32 0.30 0.28 0.29 0.29 0.29 0.28 0.28 0.27 0.29
0.54 0.84 1.18 1.17 1.20 0.72 0.15 0.16 0.16 0.10 0.07 0.08 0.10 0.12 0.12 0.11 0.13 0.14 0.16 0.23 0.31 0.36 0.37 0.44 0.45 0.41 0.41 0.47 0.50 0.50 0.53 0.54 0.51 0.53 0.53 0.52 0.47 0.44 0.41 0.38 0.34 0.31 0.30 0.29 0.31 0.34 0.35 0.34 0.34
0.52 0.76 1.05 0.92 0.53 0.21 0.09 0.11 0.10 0.07 0.05 0.04 0.04 0.07 0.10 0.11 0.13 0.15 0.17 0.23 0.31 0.36 0.38 0.41 0.45 0.44 0.43 0.44 0.45 0.48 0.53 0.54 0.53 0.53 0.53 0.53 0.48 0.41 0.39 0.41 0.40 0.37 0.35 0.36 0.36 0.37 0.39 0.41 0.41
0.40 0.50 0.51 0.71 0.50 0.28 0.16 0.09 0.07 0.06 0.05 0.04 0.03 0.05 0.08 0.09 0.11 0.16 0.16 0.20 0.29 0.34 0.33 0.33 0.42 0.44 0.45 0.48 0.46 0.46 0.51 0.55 0.54 0.53 0.53 0.53 0.54 0.48 0.44 0.44 0.46 0.46 0.46 0.47 0.48 0.47 0.45 0.46 0.46
0.34 0.43 0.58 0.95 0.84 0.41 0.17 0.10 0.09 0.07 0.07 0.06 0.05 0.07 0.10 0.11 0.12 0.17 0.17 0.18 0.25 0.33 0.31 0.28 0.35 0.40 0.41 0.46 0.52 0.49 0.48 0.53 0.56 0.58 0.57 0.54 0.54 0.56 0.55 0.54 0.50 0.49 0.52 0.57 0.63 0.61 0.55 0.54 0.52
0.39 0.54 0.76 0.87 0.64 0.45 0.25 0.15 0.12 0.10 0.11 0.11 0.10 0.09 0.12 0.13 0.14 0.19 0.19 0.19 0.22 0.29 0.31 0.29 0.29 0.38 0.41 0.41 0.46 0.52 0.51 0.54 0.58 0.61 0.58 0.55 0.56 0.59 0.61 0.61 0.59 0.55 0.56 0.60 0.64 0.64 0.64 0.64 0.62
0.38 0.46 0.60 0.83 0.63 0.35 0.28 0.17 0.09 0.09 0.09 0.10 0.12 0.11 0.10 0.11 0.12 0.14 0.18 0.21 0.23 0.31 0.35 0.33 0.31 0.36 0.43 0.44 0.41 0.43 0.50 0.56 0.61 0.61 0.58 0.58 0.57 0.58 0.63 0.63 0.64 0.61 0.59 0.64 0.69 0.68 0.66 0.69 0.71